When you browse on this site, cookies collect data to enhance your experience and personalize the content and advertising you see.
Visit our Privacy Policy to learn more. By continuing to use the site, you agree to this use of cookies and data.
  • In Hungary
  • List of Countries
  • For 7 days
  • Water Temperature
  • Weather Map
  • News
  • Weather Widgets
  • user-avatar
    Login

    Hourly Weather Lozki

    Today, 21 January, Tuesday

    Time Temperature Precipitation Wind Pressure Humidity
    00:00 -3°C° 0 mm 6 mps 752 mmHg 89%
    01:00 -3°C° 0 mm 6 mps 751 mmHg 88%
    02:00 -2°C° 0 mm 5 mps 750 mmHg 88%
    03:00 -2°C° 0.1 mm 5 mps 749 mmHg 89%
    04:00 -3°C° 0.1 mm 6 mps 749 mmHg 91%
    05:00 -3°C° 0.1 mm 6 mps 748 mmHg 92%
    06:00 -2°C° 0 mm 6 mps 747 mmHg 90%
    07:00 -2°C° 0 mm 6 mps 746 mmHg 89%
    08:00 -2°C° 0 mm 6 mps 746 mmHg 84%
    09:00 -2°C° 0 mm 7 mps 745 mmHg 85%
    10:00 -1°C° 0 mm 7 mps 745 mmHg 86%
    11:00 -1°C° 0 mm 7 mps 744 mmHg 87%
    12:00 -1°C° 0 mm 7 mps 743 mmHg 88%
    13:00 -1°C° 0 mm 7 mps 743 mmHg 89%
    14:00 -1°C° 0 mm 7 mps 742 mmHg 90%
    15:00 0°C° 0 mm 7 mps 742 mmHg 90%
    16:00 0°C° 0 mm 7 mps 741 mmHg 91%
    17:00 +2°C° 0 mm 7 mps 740 mmHg 91%
    18:00 +1°C° 0 mm 8 mps 740 mmHg 90%
    19:00 +1°C° 0 mm 8 mps 739 mmHg 89%
    20:00 +1°C° 0 mm 8 mps 739 mmHg 87%
    21:00 +1°C° 0 mm 8 mps 739 mmHg 88%
    22:00 +1°C° 0 mm 8 mps 739 mmHg 88%
    23:00 +2°C° 0 mm 7 mps 739 mmHg 89%

    Tomorrow, 22 January, Wednesday

    Time Temperature Precipitation Wind Pressure Humidity
    00:00 +2°C° 0 mm 7 mps 739 mmHg 89%
    01:00 +1°C° 0 mm 6 mps 739 mmHg 89%
    02:00 0°C° 0 mm 5 mps 738 mmHg 90%
    03:00 0°C° 0 mm 5 mps 738 mmHg 88%
    04:00 -1°C° 0 mm 5 mps 737 mmHg 86%
    05:00 -1°C° 0 mm 5 mps 736 mmHg 83%
    06:00 -1°C° 0 mm 4 mps 736 mmHg 83%
    07:00 -1°C° 0 mm 4 mps 735 mmHg 83%
    08:00 -1°C° 0 mm 3 mps 734 mmHg 83%
    09:00 -1°C° 0.2 mm 3 mps 734 mmHg 86%
    10:00 -2°C° 0.2 mm 4 mps 733 mmHg 89%
    11:00 -2°C° 0.2 mm 4 mps 733 mmHg 92%
    12:00 -2°C° 0.1 mm 4 mps 732 mmHg 90%
    13:00 -1°C° 0.1 mm 5 mps 732 mmHg 88%
    14:00 -1°C° 0.1 mm 5 mps 732 mmHg 86%
    15:00 -1°C° 0.7 mm 5 mps 732 mmHg 86%
    16:00 -3°C° 0.7 mm 6 mps 732 mmHg 86%
    17:00 -3°C° 0.7 mm 6 mps 732 mmHg 86%
    18:00 -3°C° 0 mm 6 mps 733 mmHg 84%
    19:00 -4°C° 0 mm 6 mps 734 mmHg 83%
    20:00 -4°C° 0 mm 5 mps 734 mmHg 81%
    21:00 -5°C° 0 mm 5 mps 735 mmHg 82%
    22:00 -5°C° 0 mm 5 mps 735 mmHg 83%
    23:00 -5°C° 0 mm 5 mps 736 mmHg 83%

    Day after tomorrow, 23 January, Thursday

    Time Temperature Precipitation Wind Pressure Humidity
    00:00 -5°C° 0 mm 5 mps 736 mmHg 83%
    01:00 -5°C° 0 mm 5 mps 737 mmHg 82%
    02:00 -5°C° 0 mm 6 mps 737 mmHg 82%
    03:00 -5°C° 0 mm 6 mps 737 mmHg 81%
    04:00 -6°C° 0 mm 7 mps 738 mmHg 80%
    05:00 -6°C° 0 mm 7 mps 738 mmHg 79%
    06:00 -7°C° 0 mm 7 mps 739 mmHg 75%
    07:00 -8°C° 0 mm 7 mps 739 mmHg 72%
    08:00 -8°C° 0 mm 6 mps 740 mmHg 69%
    09:00 -8°C° 0 mm 6 mps 741 mmHg 66%
    10:00 -8°C° 0 mm 6 mps 741 mmHg 64%
    11:00 -6°C° 0 mm 6 mps 742 mmHg 61%
    12:00 -6°C° 0 mm 6 mps 742 mmHg 60%
    13:00 -5°C° 0 mm 6 mps 743 mmHg 58%
    14:00 -5°C° 0 mm 6 mps 743 mmHg 57%
    15:00 -5°C° 0 mm 6 mps 743 mmHg 61%
    16:00 -6°C° 0 mm 5 mps 743 mmHg 65%
    17:00 -6°C° 0 mm 5 mps 743 mmHg 69%
    18:00 -6°C° 0 mm 5 mps 743 mmHg 71%
    19:00 -6°C° 0 mm 5 mps 744 mmHg 73%
    20:00 -6°C° 0 mm 5 mps 744 mmHg 76%
    21:00 -5°C° 0 mm 4 mps 745 mmHg 78%
    22:00 -5°C° 0 mm 4 mps 745 mmHg 80%
    23:00 -5°C° 0 mm 4 mps 745 mmHg 83%

    24 January, Friday

    Time Temperature Precipitation Wind Pressure Humidity
    00:00 -5°C° 0 mm 3 mps 745 mmHg 84%
    01:00 -5°C° 0 mm 3 mps 745 mmHg 84%
    02:00 -5°C° 0 mm 3 mps 745 mmHg 85%
    03:00 -5°C° 0 mm 3 mps 745 mmHg 86%
    04:00 -5°C° 0 mm 3 mps 745 mmHg 88%
    05:00 -4°C° 0 mm 4 mps 744 mmHg 89%
    06:00 -4°C° 0 mm 4 mps 744 mmHg 89%
    07:00 -4°C° 0 mm 4 mps 744 mmHg 88%
    08:00 -4°C° 0 mm 4 mps 744 mmHg 88%
    09:00 -5°C° 0 mm 5 mps 743 mmHg 88%
    10:00 -4°C° 0 mm 5 mps 743 mmHg 89%
    11:00 -4°C° 0 mm 5 mps 743 mmHg 89%
    12:00 -4°C° 0.2 mm 5 mps 743 mmHg 91%
    13:00 -4°C° 0.2 mm 5 mps 742 mmHg 93%
    14:00 -2°C° 0.2 mm 5 mps 742 mmHg 94%
    15:00 -2°C° 0.1 mm 5 mps 742 mmHg 95%
    16:00 -1°C° 0.1 mm 5 mps 742 mmHg 96%
    17:00 -1°C° 0.1 mm 5 mps 742 mmHg 96%
    18:00 -1°C° 0 mm 5 mps 742 mmHg 96%
    19:00 -1°C° 0 mm 5 mps 742 mmHg 96%
    20:00 -1°C° 0 mm 5 mps 742 mmHg 96%
    21:00 -1°C° 0 mm 5 mps 742 mmHg 96%
    22:00 -1°C° 0 mm 5 mps 742 mmHg 95%
    23:00 -1°C° 0 mm 5 mps 742 mmHg 95%

    25 January, Saturday

    Time Temperature Precipitation Wind Pressure Humidity
    00:00 -1°C° 0 mm 5 mps 742 mmHg 95%
    01:00 -1°C° 0 mm 5 mps 742 mmHg 95%
    02:00 -1°C° 0 mm 5 mps 742 mmHg 95%
    03:00 -1°C° 0 mm 4 mps 742 mmHg 95%
    04:00 -1°C° 0 mm 4 mps 742 mmHg 95%
    05:00 -1°C° 0 mm 4 mps 742 mmHg 95%
    06:00 -1°C° 0 mm 4 mps 742 mmHg 95%
    07:00 -2°C° 0 mm 4 mps 742 mmHg 95%
    08:00 -2°C° 0 mm 4 mps 742 mmHg 96%
    09:00 -2°C° 0 mm 4 mps 742 mmHg 95%
    10:00 -1°C° 0 mm 4 mps 742 mmHg 94%
    11:00 -1°C° 0 mm 4 mps 742 mmHg 93%
    12:00 -1°C° 0 mm 4 mps 742 mmHg 92%
    13:00 0°C° 0 mm 3 mps 742 mmHg 91%
    14:00 0°C° 0 mm 3 mps 742 mmHg 90%
    15:00 0°C° 0 mm 3 mps 742 mmHg 91%
    16:00 0°C° 0 mm 3 mps 742 mmHg 92%
    17:00 -1°C° 0 mm 3 mps 742 mmHg 94%
    18:00 -1°C° 0 mm 3 mps 742 mmHg 94%
    19:00 -1°C° 0 mm 3 mps 742 mmHg 94%
    20:00 -1°C° 0 mm 3 mps 742 mmHg 95%
    21:00 -1°C° 0 mm 3 mps 742 mmHg 95%
    22:00 -1°C° 0 mm 3 mps 742 mmHg 95%
    23:00 -1°C° 0 mm 3 mps 742 mmHg 95%

    26 January, Sunday

    Time Temperature Precipitation Wind Pressure Humidity
    00:00 -1°C° 0 mm 2 mps 742 mmHg 95%
    01:00 -1°C° 0 mm 2 mps 742 mmHg 95%
    02:00 -1°C° 0 mm 2 mps 742 mmHg 95%
    03:00 -1°C° 0 mm 2 mps 742 mmHg 95%
    04:00 -1°C° 0 mm 2 mps 742 mmHg 95%
    05:00 +1°C° 0 mm 1 mps 742 mmHg 95%
    06:00 +1°C° 0 mm 1 mps 742 mmHg 96%
    07:00 -1°C° 0 mm 2 mps 742 mmHg 96%
    08:00 -1°C° 0 mm 2 mps 742 mmHg 97%
    09:00 -1°C° 0 mm 2 mps 742 mmHg 97%
    10:00 -1°C° 0 mm 2 mps 742 mmHg 97%
    11:00 -1°C° 0 mm 2 mps 743 mmHg 97%
    12:00 -1°C° 0 mm 2 mps 742 mmHg 96%
    13:00 -1°C° 0 mm 2 mps 742 mmHg 96%
    14:00 -1°C° 0 mm 2 mps 742 mmHg 95%
    15:00 -1°C° 0 mm 2 mps 742 mmHg 96%
    16:00 -1°C° 0 mm 2 mps 742 mmHg 96%
    17:00 -1°C° 0 mm 2 mps 742 mmHg 96%
    18:00 -1°C° 0 mm 2 mps 742 mmHg 96%
    19:00 -1°C° 0 mm 2 mps 742 mmHg 96%
    20:00 -2°C° 0 mm 2 mps 742 mmHg 96%
    21:00 -2°C° 0.1 mm 2 mps 742 mmHg 96%
    22:00 -2°C° 0.1 mm 2 mps 742 mmHg 97%
    23:00 -1°C° 0.1 mm 2 mps 743 mmHg 97%
    Show more